Location: Mentone
(34.5413°N, 85.5351°W)
Time: 07:05:22
(UTC-05:00)

S-56A Canister/Altair - Visible Passes

Search period start: 29 April 2016 00:00
Search period end: 09 May 2016 00:00
Orbit: 639 x 2496 km, 38.9° (Epoch: 25 April)

Date Brightness Start Highest point End Pass type
(mag) Time Alt. Az. Time Alt. Az. Time Alt. Az.
29 Apr 9.6 20:27:14 10° WNW 20:37:14 77° SSW 20:48:08 20° SE visible
29 Apr 10.4 22:32:27 10° W 22:43:05 37° SW 22:45:34 35° SSW visible
30 Apr 9.5 19:54:55 10° WNW 20:04:17 82° SSW 20:17:23 12° ESE visible
30 Apr 10.3 21:59:45 10° W 22:10:06 40° SW 22:14:49 32° S visible
01 May 11.4 00:11:16 10° WSW 00:12:16 11° WSW 00:12:16 11° WSW visible
01 May 10.1 21:27:09 10° WNW 21:37:08 44° SW 21:44:08 27° SSE visible
01 May 11.2 23:36:37 10° WSW 23:41:35 14° SW 23:41:35 14° SW visible
02 May 10.0 20:54:39 10° WNW 21:04:13 47° SSW 21:13:30 20° SSE visible
02 May 11.1 23:02:47 10° WSW 23:09:39 16° SW 23:10:57 16° SW visible
03 May 9.9 20:22:15 10° WNW 20:31:20 51° SSW 20:42:55 13° SE visible
03 May 11.0 22:29:23 10° W 22:36:46 19° SW 22:40:23 17° SSW visible
04 May 9.7 19:49:55 10° WNW 19:58:31 55° SSW 20:11:03 10° SE visible
04 May 10.9 21:56:16 10° W 22:03:55 21° SW 22:09:51 15° S visible
05 May 10.8 21:23:22 10° W 21:31:05 23° SW 21:39:25 12° S visible
06 May 10.7 20:50:39 10° W 20:58:17 26° SW 21:08:05 10° S visible
07 May 10.5 20:18:04 10° W 20:25:31 28° SW 20:35:23 10° SSE visible
08 May 10.4 19:45:36 10° W 19:52:48 30° SW 20:02:36 10° SSE visible
